Location: Arbon
(43.0005°N, 0.7472°E)
Time: 11:34:46
(UTC+00:00)

Meteor 2-3 Rocket - Pass Details

Date: 22 April 2026
Orbit: 845 x 880 km, 81.2° (Epoch: 15 May)

Event Time Altitude Azimuth Distance (km) Brightness Sun altitude
Rises 22:06:58 0° 353° (N) 3,418 7.8 -29.3°
Reaches altitude 10° 22:09:26 10° 357° (N) 2,477 6.9 -29.5°
Enters shadow 22:14:04 53° 38° (NE) 1,039 4.2 -29.9°
